Location: Namasale
(1.5000°N, 32.6167°E)
Time: 10:15:42
(UTC+00:00)

Courier 1B - Pass Details

Date: 19 April 2021
Orbit: 962 x 1209 km, 28.3° (Epoch: 15 May)

Event Time Altitude Azimuth Distance (km) Brightness Sun altitude
Rises 06:52:45 0° 240° (WSW) 3,961 10.3 45.3°
Reaches altitude 10° 06:55:36 10° 240° (WSW) 2,965 9.7 46.0°
Maximum altitude 07:02:53 89° 323° (NW) 1,056 8.6 47.7°
Drops below altitude 10° 07:09:41 10° 60° (ENE) 2,779 10.8 49.4°
Sets 07:12:17 0° 60° (ENE) 3,700 11.1 50.0°
